Meteo Giornale » Osservazioni meteo Francia » Saint-Brieuc
ore: 16:30 - Osservazioni Meteo Saint-Brieuc
Lat. 48° 32' N Lon. 2° 51' W Alt. 138 metri s.l.m.
19 °C
Sereno
Temp. 24 Ore
12 °C
22 °C
Nord/Nord-Est
18.5 Km/h
Dew point 12 °C
Umidità 63 %
Visibilità 10 Km
Il sole sorge alle ore 07:28
Il sole tramonta alle ore 20:54
| Data e Ora | Cielo e Fenomeni | T °C | DP °C | Um. % | Pres. hPa | Vis. km | Vento km/h | |
|---|---|---|---|---|---|---|---|---|
| Oggi h: 16:30 | Sereno | 19 | 12 | 63 | 1022 | 10 | N/NE 18.5 | |
| Oggi h: 16:00 | Sereno | 20 | 12 | 59 | 1022 | 10 | NE 16.7 | |
| Oggi h: 15:30 | Molto Nuvoloso | 21 | 12 | 56 | 1022 | 10 | E/NE 16.7 | |
| Oggi h: 15:00 | Molto Nuvoloso | 20 | 12 | 59 | 1022 | 10 | N/NE 9.3 | |
| Oggi h: 14:30 | Sereno | 20 | 12 | 59 | 1022 | 10 | N 9.3 | |
| Oggi h: 14:00 | Molto Nuvoloso | 21 | 12 | 56 | 1023 | 10 | NE 13 | |
| Oggi h: 13:30 | Molto Nuvoloso | 22 | 10 | 46 | 1023 | 10 | N 7.4 | |
| Oggi h: 13:00 | Coperto | 19 | 9 | 52 | 1023 | 10 | SO 9.3 | |
| Oggi h: 12:30 | Molto Nuvoloso | 19 | 10 | 55 | 1023 | 10 | O/SO 7.4 | |
| Oggi h: 12:00 | Molto Nuvoloso | 19 | 11 | 59 | 1023 | 10 | O/NO 9.3 | |
| Oggi h: 11:30 | Coperto | 19 | 12 | 63 | 1023 | 10 | O/NO 9.3 | |
| Oggi h: 11:00 | Sereno | 18 | 12 | 67 | 1023 | 10 | N 5.5 | |
| Oggi h: 10:30 | Sereno | 17 | 12 | 72 | 1023 | 10 | N 5.5 | |
| Oggi h: 10:00 | Sereno | 17 | 12 | 72 | 1023 | 10 | O 7.4 | |
| Oggi h: 09:30 | Sereno | 15 | 12 | 82 | 1023 | 10 | N 3.7 | |
| Oggi h: 09:00 | Sereno | 14 | 11 | 82 | 1023 | 10 | N 5.5 | |
| Oggi h: 08:30 | Sereno | 13 | 10 | 81 | 1022 | 10 | S 7.4 | |
| Oggi h: 08:00 | Sereno | 13 | 10 | 81 | 1022 | 10 | N 5.5 | |
| Oggi h: 07:30 | Sereno | 13 | 9 | 76 | 1022 | 10 | S/SO 7.4 | |
| Oggi h: 07:00 | Sereno | 13 | 9 | 76 | 1022 | 10 | SO 9.3 | |
| Oggi h: 06:30 | Sereno | 13 | 10 | 81 | 1022 | 10 | O/SO 9.3 | |
| Oggi h: 06:00 | Sereno | 12 | 10 | 87 | 1022 | 10 | N 5.5 | |
| Oggi h: 05:30 | Sereno | 12 | 10 | 87 | 1022 | 10 | O/SO 9.3 | |
| Oggi h: 05:00 | Sereno | 12 | 10 | 87 | 1022 | 10 | O/SO 7.4 | |
| Oggi h: 04:30 | Sereno | 13 | 10 | 81 | 1022 | 10 | O/SO 7.4 | |
| Oggi h: 04:00 | Sereno | 12 | 10 | 87 | 1022 | 10 | O/SO 7.4 | |
| Oggi h: 03:30 | Sereno | 13 | 11 | 87 | 1022 | 10 | O/SO 7.4 | |
| Oggi h: 03:00 | Sereno | 13 | 11 | 87 | 1022 | 10 | O/SO 9.3 | |
| Oggi h: 02:30 | Sereno | 13 | 11 | 87 | 1022 | 10 | O/SO 11.1 | |
| Oggi h: 02:00 | Sereno | 13 | 11 | 87 | 1022 | 10 | O/SO 11.1 | |
| Oggi h: 01:30 | Sereno | 13 | 11 | 87 | 1022 | 10 | O 11.1 | |
| Oggi h: 01:00 | Sereno | 13 | 11 | 87 | 1022 | 10 | O 9.3 | |
| Oggi h: 00:30 | Sereno | 13 | 10 | 81 | 1022 | 10 | O 11.1 | |
| Oggi h: 00:00 | Sereno | 13 | 11 | 87 | 1022 | 10 | O 11.1 | |
| Ieri h: 23:30 | Sereno | 14 | 11 | 82 | 1022 | 10 | O 9.3 | |
| Ieri h: 23:00 | Sereno | 14 | 11 | 82 | 1022 | 10 | O 9.3 | |
| Ieri h: 22:30 | Sereno | 15 | 12 | 82 | 1022 | 10 | O 11.1 | |
| Ieri h: 22:00 | Sereno | 15 | 11 | 76 | 1022 | 10 | O 7.4 | |
| Ieri h: 21:30 | Sereno | 15 | 11 | 76 | 1021 | 10 | O 7.4 | |
| Ieri h: 21:00 | Sereno | 16 | 11 | 72 | 1021 | 10 | N 5.5 | |
| Ieri h: 20:30 | Sereno | 17 | 11 | 67 | 1021 | 10 | O/NO 13 | |
| Ieri h: 20:00 | Sereno | 18 | 11 | 63 | 1021 | 10 | NO 18.5 | |
| Ieri h: 19:30 | Sereno | 19 | 11 | 59 | 1021 | 10 | NO 22.2 | |
| Ieri h: 19:00 | Sereno | 19 | 10 | 55 | 1020 | 10 | NO 20.3 | |
| Ieri h: 18:30 | Poco Nuvoloso | 20 | 11 | 56 | 1020 | 10 | O/NO 22.2 | |
| Ieri h: 18:00 | Poco Nuvoloso | 20 | 11 | 56 | 1020 | 10 | O/NO 25.9 | |



